Location: Zagreb
(45.8000°N, 16.0000°E)
Time: 00:20:15
(UTC+01:00)

Transit 2A Rocket - Pass Details

Date: 07 October 2020
Orbit: 586 x 916 km, 66.7° (Epoch: 28 October)

Event Time Altitude Azimuth Distance (km) Brightness Sun altitude
Rises 15:43:03 0° 209° (SSW) 3,514 9.5 24.8°
Reaches altitude 10° 15:45:32 10° 209° (SSW) 2,592 9.1 24.4°
Maximum altitude 15:51:39 87° 122° (ESE) 922 5.8 23.6°
Drops below altitude 10° 15:57:43 10° 34° (NE) 2,574 7.3 22.8°
Sets 16:00:11 0° 34° (NE) 3,489 7.9 22.4°
